Time,TemperatureF,DewpointF,PressureIn,WindDirection,WindDirectionDegrees,WindSpeedMPH,WindSpeedGustMPH,Humidity,HourlyPrecipIn,Conditions,Clouds,dailyrainin,SoftwareType,DateUTC
2013-03-06 15:12:00,39.5,36.0,29.96,ENE,61,5.0,7.0,87,0.00,,,0.03,Wunderground v.1.15,2013-03-06 20:12:00,
2013-03-06 15:17:00,39.4,36.1,29.96,NNE,19,6.0,12.0,88,0.00,,,0.03,Wunderground v.1.15,2013-03-06 20:17:00,
2013-03-06 15:52:00,38.6,36.2,29.96,ENE,65,5.0,5.0,91,0.00,,,0.03,Wunderground v.1.15,2013-03-06 20:52:00,
2013-03-06 15:57:00,38.4,36.0,29.96,ENE,61,5.0,12.0,91,0.00,,,0.03,Wunderground v.1.15,2013-03-06 20:57:00,
2013-03-06 16:02:00,38.3,36.2,29.97,WSW,237,5.0,10.0,92,0.00,,,0.03,Wunderground v.1.15,2013-03-06 21:02:00,
2013-03-06 16:07:00,38.2,36.1,29.97,ENE,67,5.0,10.0,92,0.00,,,0.03,Wunderground v.1.15,2013-03-06 21:07:00,
2013-03-06 16:12:00,38.2,36.1,29.98,ESE,105,5.0,20.0,92,0.00,,,0.03,Wunderground v.1.15,2013-03-06 21:12:00,
2013-03-06 16:18:00,38.2,36.1,29.97,West,261,6.0,20.0,92,0.00,,,0.03,Wunderground v.1.15,2013-03-06 21:18:00,
2013-03-06 16:23:00,38.1,36.0,29.97,East,96,5.0,7.0,92,0.00,,,0.03,Wunderground v.1.15,2013-03-06 21:23:00,
2013-03-06 16:29:00,38.1,36.3,29.98,ENE,71,5.0,16.0,93,0.00,,,0.03,Wunderground v.1.15,2013-03-06 21:29:00,
2013-03-06 16:35:00,38.0,36.2,29.97,ENE,63,6.0,10.0,93,0.00,,,0.03,Wunderground v.1.15,2013-03-06 21:35:00,
2013-03-06 16:40:00,37.9,36.1,29.96,ENE,78,5.0,5.0,93,0.00,,,0.03,Wunderground v.1.15,2013-03-06 21:40:00,
2013-03-06 16:45:00,37.9,36.1,29.96,ENE,73,5.0,6.0,93,0.00,,,0.04,Wunderground v.1.15,2013-03-06 21:45:00,
2013-03-06 16:50:00,37.8,36.2,29.96,NNE,32,5.0,8.0,94,0.00,,,0.04,Wunderground v.1.15,2013-03-06 21:50:00,
2013-03-06 16:56:00,37.7,36.1,29.95,ESE,107,6.0,8.0,94,0.00,,,0.04,Wunderground v.1.15,2013-03-06 21:56:00,
2013-03-06 17:01:00,37.6,36.0,29.94,ENE,62,5.0,8.0,94,0.00,,,0.04,Wunderground v.1.15,2013-03-06 22:01:00,
2013-03-06 17:07:00,37.6,36.0,29.94,East,82,6.0,14.0,94,0.00,,,0.04,Wunderground v.1.15,2013-03-06 22:07:00,
2013-03-06 17:13:00,37.5,35.9,29.94,NNE,28,7.0,7.0,94,0.00,,,0.04,Wunderground v.1.15,2013-03-06 22:13:00,
2013-03-06 17:18:00,37.5,35.9,29.95,North,355,5.0,8.0,94,0.00,,,0.04,Wunderground v.1.15,2013-03-06 22:18:00,
2013-03-06 17:23:00,37.5,35.9,29.96,NE,54,4.0,8.0,94,0.00,,,0.04,Wunderground v.1.15,2013-03-06 22:23:00,
2013-03-06 17:29:00,37.4,35.8,29.96,NNE,20,5.0,16.0,94,0.00,,,0.04,Wunderground v.1.15,2013-03-06 22:29:00,
2013-03-06 17:34:00,37.5,35.9,29.96,WNW,300,6.0,10.0,94,0.00,,,0.04,Wunderground v.1.15,2013-03-06 22:34:00,
2013-03-06 17:39:00,37.5,35.7,29.96,NNW,338,6.0,13.0,93,0.00,,,0.04,Wunderground v.1.15,2013-03-06 22:39:00,
2013-03-06 17:45:00,37.5,35.7,29.96,NW,325,6.0,13.0,93,0.00,,,0.04,Wunderground v.1.15,2013-03-06 22:45:00,
2013-03-06 17:50:00,37.5,35.7,29.96,ENE,61,6.0,6.0,93,0.00,,,0.04,Wunderground v.1.15,2013-03-06 22:50:00,
2013-03-06 17:55:00,37.5,35.7,29.96,NNE,16,6.0,11.0,93,0.00,,,0.04,Wunderground v.1.15,2013-03-06 22:55:00,
2013-03-06 18:01:00,37.5,35.7,29.96,NE,53,8.0,10.0,93,0.00,,,0.04,Wunderground v.1.15,2013-03-06 23:01:00,
2013-03-06 18:07:00,37.5,35.7,29.96,ENE,59,7.0,10.0,93,0.00,,,0.04,Wunderground v.1.15,2013-03-06 23:07:00,
2013-03-06 18:12:00,37.5,35.7,29.95,ENE,69,6.0,15.0,93,0.00,,,0.04,Wunderground v.1.15,2013-03-06 23:12:00,
2013-03-06 18:18:00,37.5,35.7,29.95,North,355,6.0,15.0,93,0.00,,,0.04,Wunderground v.1.15,2013-03-06 23:18:00,
2013-03-06 18:23:00,37.5,35.7,29.96,South,186,7.0,7.0,93,0.00,,,0.04,Wunderground v.1.15,2013-03-06 23:23:00,
2013-03-06 18:28:00,37.5,35.7,29.95,West,269,7.0,19.0,93,0.00,,,0.04,Wunderground v.1.15,2013-03-06 23:28:00,
2013-03-06 18:33:00,37.5,35.7,29.95,East,88,7.0,10.0,93,0.00,,,0.04,Wunderground v.1.15,2013-03-06 23:33:00,
2013-03-06 18:39:00,37.7,35.9,29.95,ENE,67,7.0,15.0,93,0.00,,,0.04,Wunderground v.1.15,2013-03-06 23:39:00,
2013-03-06 18:44:00,37.7,35.9,29.95,North,351,7.0,9.0,93,0.00,,,0.04,Wunderground v.1.15,2013-03-06 23:44:00,
2013-03-06 18:50:00,37.8,35.7,29.95,North,360,6.0,6.0,92,0.00,,,0.04,Wunderground v.1.15,2013-03-06 23:50:00,
2013-03-06 18:55:00,37.9,35.8,29.95,NE,53,6.0,18.0,92,0.00,,,0.04,Wunderground v.1.15,2013-03-06 23:55:00,
2013-03-06 19:00:00,37.9,35.8,29.94,SSW,209,6.0,9.0,92,0.00,,,0.04,Wunderground v.1.15,2013-03-07 00:00:00,
2013-03-06 19:05:00,38.0,35.6,29.94,NE,53,6.0,10.0,91,0.00,,,0.04,Wunderground v.1.15,2013-03-07 00:05:00,
2013-03-06 19:11:00,38.1,35.7,29.95,ESE,103,7.0,10.0,91,0.00,,,0.04,Wunderground v.1.15,2013-03-07 00:11:00,
2013-03-06 19:16:00,38.1,35.7,29.95,NNE,19,7.0,14.0,91,0.00,,,0.04,Wunderground v.1.15,2013-03-07 00:16:00,
2013-03-06 19:22:00,38.2,35.5,29.94,NNE,31,7.0,18.0,90,0.00,,,0.05,Wunderground v.1.15,2013-03-07 00:22:00,
2013-03-06 19:27:00,38.2,35.5,29.94,ENE,71,8.0,18.0,90,0.00,,,0.05,Wunderground v.1.15,2013-03-07 00:27:00,
2013-03-06 19:32:00,38.1,35.7,29.94,ENE,72,7.0,15.0,91,0.00,,,0.05,Wunderground v.1.15,2013-03-07 00:32:00,
2013-03-06 19:37:00,38.0,35.6,29.94,NE,44,7.0,17.0,91,0.00,,,0.05,Wunderground v.1.15,2013-03-07 00:37:00,
2013-03-06 19:42:00,37.9,35.8,29.94,East,81,6.0,9.0,92,0.00,,,0.05,Wunderground v.1.15,2013-03-07 00:42:00,
2013-03-06 19:48:00,37.9,35.8,29.94,SE,125,6.0,18.0,92,0.00,,,0.05,Wunderground v.1.15,2013-03-07 00:48:00,
2013-03-06 19:53:00,37.9,35.8,29.95,NNE,19,5.0,10.0,92,0.00,,,0.05,Wunderground v.1.15,2013-03-07 00:53:00,
2013-03-06 19:59:00,37.9,35.5,29.94,East,96,6.0,10.0,91,0.00,,,0.05,Wunderground v.1.15,2013-03-07 00:59:00,
2013-03-06 20:04:00,38.0,35.6,29.94,SE,134,7.0,16.0,91,0.00,,,0.05,Wunderground v.1.15,2013-03-07 01:04:00,
2013-03-06 20:09:00,38.0,35.3,29.94,NE,47,7.0,16.0,90,0.00,,,0.05,Wunderground v.1.15,2013-03-07 01:09:00,
2013-03-06 20:15:00,38.1,35.4,29.93,East,96,7.0,12.0,90,0.00,,,0.05,Wunderground v.1.15,2013-03-07 01:15:00,
2013-03-06 20:20:00,38.1,35.4,29.93,East,93,7.0,16.0,90,0.00,,,0.05,Wunderground v.1.15,2013-03-07 01:20:00,
2013-03-06 20:25:00,38.1,35.4,29.93,NE,55,7.0,17.0,90,0.00,,,0.05,Wunderground v.1.15,2013-03-07 01:25:00,
2013-03-06 20:31:00,38.0,35.3,29.93,ENE,68,7.0,10.0,90,0.00,,,0.05,Wunderground v.1.15,2013-03-07 01:31:00,
2013-03-06 20:36:00,38.0,35.3,29.91,NW,305,6.0,16.0,90,0.00,,,0.05,Wunderground v.1.15,2013-03-07 01:36:00,
2013-03-06 20:42:00,37.9,35.2,29.91,ENE,65,8.0,9.0,90,0.00,,,0.05,Wunderground v.1.15,2013-03-07 01:42:00,
2013-03-06 20:47:00,37.9,35.2,29.92,WNW,282,7.0,9.0,90,0.00,,,0.05,Wunderground v.1.15,2013-03-07 01:47:00,
2013-03-06 20:52:00,37.9,35.2,29.92,East,81,7.0,12.0,90,0.00,,,0.05,Wunderground v.1.15,2013-03-07 01:52:00,
2013-03-06 20:58:00,37.9,35.2,29.92,NNW,348,7.0,12.0,90,0.00,,,0.05,Wunderground v.1.15,2013-03-07 01:58:00,
2013-03-06 21:04:00,37.9,35.2,29.92,ENE,57,7.0,9.0,90,0.00,,,0.05,Wunderground v.1.15,2013-03-07 02:04:00,
2013-03-06 21:09:00,37.9,35.2,29.92,NNE,22,7.0,16.0,90,0.00,,,0.05,Wunderground v.1.15,2013-03-07 02:09:00,
2013-03-06 21:14:00,37.9,35.2,29.91,North,355,8.0,10.0,90,0.00,,,0.05,Wunderground v.1.15,2013-03-07 02:14:00,
2013-03-06 21:19:00,37.8,35.1,29.92,East,80,8.0,14.0,90,0.00,,,0.05,Wunderground v.1.15,2013-03-07 02:19:00,
2013-03-06 21:25:00,37.8,35.1,29.92,NNW,332,7.0,9.0,90,0.00,,,0.05,Wunderground v.1.15,2013-03-07 02:25:00,
2013-03-06 21:30:00,37.9,35.2,29.92,North,5,7.0,8.0,90,0.00,,,0.05,Wunderground v.1.15,2013-03-07 02:30:00,
2013-03-06 21:36:00,37.8,35.1,29.92,North,350,6.0,12.0,90,0.00,,,0.05,Wunderground v.1.15,2013-03-07 02:36:00,
2013-03-06 21:41:00,37.8,35.1,29.92,NE,39,6.0,8.0,90,0.00,,,0.05,Wunderground v.1.15,2013-03-07 02:41:00,
2013-03-06 21:47:00,37.7,35.0,29.92,NE,39,6.0,10.0,90,0.00,,,0.05,Wunderground v.1.15,2013-03-07 02:47:00,
2013-03-06 21:52:00,37.7,35.0,29.92,SE,136,7.0,10.0,90,0.00,,,0.05,Wunderground v.1.15,2013-03-07 02:52:00,
2013-03-06 21:57:00,37.8,35.1,29.92,East,98,7.0,10.0,90,0.00,,,0.05,Wunderground v.1.15,2013-03-07 02:57:00,
2013-03-06 22:03:00,37.8,35.1,29.92,East,90,7.0,14.0,90,0.00,,,0.05,Wunderground v.1.15,2013-03-07 03:03:00,
2013-03-06 22:09:00,37.8,35.1,29.92,ENE,65,7.0,14.0,90,0.00,,,0.05,Wunderground v.1.15,2013-03-07 03:09:00,
2013-03-06 22:14:00,37.7,35.0,29.92,NNE,24,7.0,10.0,90,0.00,,,0.05,Wunderground v.1.15,2013-03-07 03:14:00,
2013-03-06 22:19:00,37.7,35.0,29.92,NW,317,7.0,10.0,90,0.00,,,0.05,Wunderground v.1.15,2013-03-07 03:19:00,
2013-03-06 22:25:00,37.7,35.0,29.92,ENE,65,7.0,7.0,90,0.00,,,0.05,Wunderground v.1.15,2013-03-07 03:25:00,
2013-03-06 22:30:00,37.7,35.0,29.92,NE,55,6.0,6.0,90,0.00,,,0.05,Wunderground v.1.15,2013-03-07 03:30:00,
2013-03-06 22:35:00,37.7,35.3,29.93,NNW,329,6.0,14.0,91,0.00,,,0.05,Wunderground v.1.15,2013-03-07 03:35:00,
2013-03-06 22:40:00,37.6,35.2,29.92,East,84,5.0,10.0,91,0.00,,,0.05,Wunderground v.1.15,2013-03-07 03:40:00,
2013-03-06 22:46:00,37.6,35.2,29.92,ENE,69,6.0,15.0,91,0.00,,,0.05,Wunderground v.1.15,2013-03-07 03:46:00,
2013-03-06 22:52:00,37.5,35.4,29.92,NNE,21,7.0,16.0,92,0.00,,,0.05,Wunderground v.1.15,2013-03-07 03:52:00,
2013-03-06 22:57:00,37.5,35.4,29.92,WNW,282,6.0,16.0,92,0.00,,,0.05,Wunderground v.1.15,2013-03-07 03:57:00,
2013-03-06 23:02:00,37.4,35.3,29.91,NNE,28,6.0,13.0,92,0.00,,,0.05,Wunderground v.1.15,2013-03-07 04:02:00,
2013-03-06 23:08:00,37.3,35.2,29.92,North,350,6.0,13.0,92,0.00,,,0.05,Wunderground v.1.15,2013-03-07 04:08:00,
2013-03-06 23:13:00,37.3,35.2,29.91,North,360,7.0,11.0,92,0.00,,,0.05,Wunderground v.1.15,2013-03-07 04:13:00,
2013-03-06 23:19:00,37.3,35.2,29.91,NE,42,6.0,11.0,92,0.00,,,0.05,Wunderground v.1.15,2013-03-07 04:19:00,
2013-03-06 23:24:00,37.3,35.2,29.91,ENE,72,6.0,21.0,92,0.00,,,0.05,Wunderground v.1.15,2013-03-07 04:24:00,
2013-03-06 23:29:00,37.3,35.2,29.91,NNE,24,7.0,21.0,92,0.00,,,0.05,Wunderground v.1.15,2013-03-07 04:29:00,
2013-03-06 23:35:00,37.3,35.2,29.91,NNW,336,7.0,12.0,92,0.00,,,0.05,Wunderground v.1.15,2013-03-07 04:35:00,
2013-03-06 23:40:00,37.3,35.2,29.91,East,80,7.0,11.0,92,0.00,,,0.05,Wunderground v.1.15,2013-03-07 04:40:00,
2013-03-06 23:45:00,37.3,34.9,29.91,NW,314,7.0,13.0,91,0.00,,,0.05,Wunderground v.1.15,2013-03-07 04:45:00,
2013-03-06 23:51:00,37.3,35.2,29.90,NNE,24,7.0,9.0,92,0.00,,,0.05,Wunderground v.1.15,2013-03-07 04:51:00,
2013-03-06 23:56:00,37.3,35.2,29.91,North,5,7.0,13.0,92,0.00,,,0.05,Wunderground v.1.15,2013-03-07 04:56:00,